| time (UTC) | temp C | wind direction | speed KPH | gust KPH | rain 1hr cm | rain 24hr cm | rain mn cm | humidity % | barometer mb |
| 20260507220808 | 15 | 275 | 9.7 | 22.5 | 0.00 | 0.00 | 0.00 | 42 | 1403.0 |
| 20260507220301 | 16 | 256 | 9.7 | 17.7 | 0.00 | 0.00 | 0.00 | 42 | 1402.8 |
| 20260507215755 | 16 | 217 | 9.7 | 22.5 | 0.00 | 0.00 | 0.00 | 42 | 1402.8 |
| 20260507215249 | 15 | 205 | 9.7 | 22.5 | 0.00 | 0.00 | 0.00 | 41 | 1402.8 |
| 20260507214742 | 15 | 321 | 9.7 | 20.9 | 0.00 | 0.00 | 0.00 | 44 | 1402.8 |
| 20260507214237 | 15 | 327 | 11.3 | 24.1 | 0.00 | 0.00 | 0.00 | 40 | 1402.9 |
| 20260507213730 | 15 | 224 | 11.3 | 24.1 | 0.00 | 0.00 | 0.00 | 40 | 1402.8 |
| 20260507212213 | 15 | 262 | 8.0 | 20.9 | 0.00 | 0.00 | 0.00 | 44 | 1402.9 |
| 20260507211706 | 15 | 265 | 6.4 | 20.9 | 0.00 | 0.00 | 0.00 | 43 | 1402.8 |
| 20260507210654 | 15 | 329 | 8.0 | 17.7 | 0.00 | 0.00 | 0.00 | 48 | 1402.9 |
| 20260507210149 | 15 | 207 | 8.0 | 17.7 | 0.00 | 0.00 | 0.00 | 46 | 1402.8 |
| 20260507205642 | 15 | 209 | 11.3 | 25.7 | 0.00 | 0.00 | 0.00 | 48 | 1402.6 |
| 20260507205137 | 15 | 238 | 12.9 | 25.7 | 0.00 | 0.00 | 0.00 | 45 | 1402.8 |
| 20260507204631 | 15 | 269 | 11.3 | 24.1 | 0.00 | 0.00 | 0.00 | 44 | 1402.6 |
| 20260507203113 | 15 | 271 | 9.7 | 19.3 | 0.00 | 0.00 | 0.00 | 44 | 1402.8 |
| 20260507202607 | 15 | 285 | 11.3 | 22.5 | 0.00 | 0.00 | 0.00 | 45 | 1402.8 |
| 20260507202101 | 16 | 223 | 11.3 | 22.5 | 0.00 | 0.00 | 0.00 | 46 | 1402.5 |
| 20260507200543 | 15 | 243 | 11.3 | 19.3 | 0.00 | 0.00 | 0.00 | 49 | 1402.9 |
| 20260507200038 | 15 | 261 | 11.3 | 22.5 | 0.00 | 0.00 | 0.00 | 45 | 1403.0 |
| 20260507195537 | 15 | 242 | 11.3 | 22.5 | 0.00 | 0.00 | 0.00 | 45 | 1403.2 |
| 20260507195038 | 15 | 223 | 9.7 | 20.9 | 0.00 | 0.00 | 0.00 | 48 | 1403.3 |
| 20260507194537 | 15 | 290 | 11.3 | 19.3 | 0.00 | 0.00 | 0.00 | 49 | 1403.4 |
| 20260507194038 | 15 | 259 | 9.7 | 19.3 | 0.00 | 0.00 | 0.00 | 46 | 1403.4 |
| 20260507193537 | 15 | 284 | 11.3 | 22.5 | 0.00 | 0.00 | 0.00 | 46 | 1403.4 |
| 20260507193037 | 16 | 258 | 11.3 | 22.5 | 0.00 | 0.00 | 0.00 | 45 | 1403.3 |
| 20260507192538 | 15 | 250 | 8.0 | 17.7 | 0.00 | 0.00 | 0.00 | 52 | 1403.4 |
| 20260507192039 | 15 | 230 | 8.0 | 19.3 | 0.00 | 0.00 | 0.00 | 48 | 1403.4 |
| 20260507191538 | 16 | 263 | 9.7 | 22.5 | 0.00 | 0.00 | 0.00 | 47 | 1403.4 |
| 20260507191037 | 16 | 241 | 11.3 | 24.1 | 0.00 | 0.00 | 0.00 | 51 | 1403.4 |
| 20260507190538 | 15 | 259 | 11.3 | 25.7 | 0.00 | 0.00 | 0.00 | 53 | 1403.4 |
| 20260507190038 | 15 | 244 | 9.7 | 25.7 | 0.00 | 0.00 | 0.00 | 48 | 1403.4 |
| 20260507185538 | 15 | 272 | 11.3 | 24.1 | 0.00 | 0.00 | 0.00 | 47 | 1403.6 |
| 20260507185037 | 15 | 192 | 12.9 | 24.1 | 0.00 | 0.00 | 0.00 | 46 | 1403.6 |
| 20260507184537 | 15 | 286 | 11.3 | 22.5 | 0.00 | 0.00 | 0.00 | 45 | 1403.7 |
| 20260507184036 | 16 | 233 | 11.3 | 22.5 | 0.00 | 0.00 | 0.00 | 45 | 1403.8 |
| 20260507183534 | 16 | 274 | 8.0 | 22.5 | 0.00 | 0.00 | 0.00 | 50 | 1403.8 |
| 20260507183034 | 15 | 299 | 8.0 | 22.5 | 0.00 | 0.00 | 0.00 | 51 | 1403.8 |
| 20260507182535 | 15 | 193 | 8.0 | 24.1 | 0.00 | 0.00 | 0.00 | 51 | 1403.8 |
| 20260507182035 | 15 | 267 | 9.7 | 24.1 | 0.00 | 0.00 | 0.00 | 50 | 1404.0 |
| 20260507181533 | 15 | 303 | 8.0 | 17.7 | 0.00 | 0.00 | 0.00 | 47 | 1403.8 |
| 20260507180534 | 15 | 202 | 9.7 | 22.5 | 0.00 | 0.00 | 0.00 | 49 | 1403.8 |
| 20260507180035 | 15 | 240 | 6.4 | 17.7 | 0.00 | 0.00 | 0.00 | 55 | 1403.8 |
| 20260507174529 | 15 | 278 | 6.4 | 14.5 | 0.00 | 0.00 | 0.00 | 53 | 1404.2 |
| 20260507174030 | 15 | 311 | 6.4 | 14.5 | 0.00 | 0.00 | 0.00 | 51 | 1404.4 |
| 20260507173029 | 14 | 186 | 4.8 | 14.5 | 0.00 | 0.00 | 0.00 | 56 | 1404.7 |
| 20260507172529 | 13 | 302 | 6.4 | 14.5 | 0.00 | 0.00 | 0.00 | 53 | 1404.8 |
| 20260507172030 | 14 | 345 | 6.4 | 16.1 | 0.00 | 0.00 | 0.00 | 52 | 1404.9 |
| 20260507171031 | 14 | 277 | 4.8 | 17.7 | 0.00 | 0.00 | 0.00 | 51 | 1404.9 |
| 20260507170530 | 14 | 336 | 3.2 | 12.9 | 0.00 | 0.00 | 0.00 | 54 | 1405.1 |
| 20260507165529 | 14 | 209 | 6.4 | 16.1 | 0.00 | 0.03 | 0.00 | 50 | 1405.1 |
| 20260507165029 | 15 | 321 | 4.8 | 16.1 | 0.00 | 0.03 | 0.00 | 51 | 1405.3 |
| 20260507164530 | 14 | 207 | 3.2 | 12.9 | 0.00 | 0.03 | 0.00 | 55 | 1405.3 |
| 20260507163030 | 13 | 232 | 8.0 | 17.7 | 0.00 | 0.03 | 0.00 | 53 | 1405.6 |
| 20260507162530 | 13 | 293 | 4.8 | 16.1 | 0.00 | 0.03 | 0.00 | 52 | 1405.6 |
| 20260507162024 | 14 | 89 | 6.4 | 14.5 | 0.00 | 0.03 | 0.00 | 54 | 1405.7 |
| 20260507161522 | 13 | 185 | 9.7 | 17.7 | 0.00 | 0.03 | 0.00 | 57 | 1405.6 |
| 20260507161023 | 13 | 209 | 8.0 | 17.7 | 0.00 | 0.03 | 0.00 | 56 | 1405.7 |
| 20260507160522 | 13 | 137 | 6.4 | 16.1 | 0.00 | 0.03 | 0.00 | 52 | 1405.7 |
| 20260507160021 | 13 | 183 | 6.4 | 16.1 | 0.00 | 0.03 | 0.00 | 52 | 1405.9 |
| 20260507155519 | 13 | 302 | 4.8 | 16.1 | 0.00 | 0.03 | 0.00 | 54 | 1405.7 |
| 20260507155019 | 13 | 221 | 4.8 | 14.5 | 0.00 | 0.03 | 0.00 | 54 | 1406.0 |
| 20260507154520 | 12 | 199 | 4.8 | 14.5 | 0.00 | 0.03 | 0.00 | 56 | 1406.1 |
| 20260507154020 | 13 | 340 | 4.8 | 14.5 | 0.00 | 0.03 | 0.00 | 53 | 1406.1 |
| 20260507153519 | 13 | 223 | 6.4 | 16.1 | 0.00 | 0.03 | 0.00 | 51 | 1406.1 |
| 20260507153019 | 13 | 238 | 6.4 | 16.1 | 0.00 | 0.03 | 0.00 | 53 | 1406.3 |
| 20260507152019 | 12 | 266 | 6.4 | 16.1 | 0.00 | 0.03 | 0.00 | 51 | 1406.3 |
| 20260507151015 | 13 | 195 | 6.4 | 12.9 | 0.00 | 0.03 | 0.00 | 58 | 1406.4 |
| 20260507150515 | 12 | 169 | 4.8 | 12.9 | 0.00 | 0.03 | 0.00 | 54 | 1406.5 |
| 20260507150016 | 12 | 268 | 4.8 | 12.9 | 0.00 | 0.03 | 0.00 | 54 | 1406.5 |
| 20260507145510 | 12 | 284 | 3.2 | 12.9 | 0.00 | 0.03 | 0.00 | 57 | 1406.7 |
| 20260507145003 | 12 | 274 | 1.6 | 8.0 | 0.00 | 0.03 | 0.00 | 55 | 1406.7 |
| 20260507144458 | 12 | 243 | 3.2 | 12.9 | 0.00 | 0.03 | 0.00 | 57 | 1406.8 |
| 20260507143952 | 12 | 200 | 4.8 | 12.9 | 0.00 | 0.08 | 0.00 | 59 | 1406.8 |
| 20260507143446 | 12 | 225 | 4.8 | 12.9 | 0.00 | 0.10 | 0.00 | 61 | 1407.1 |
| 20260507142435 | 12 | 208 | 4.8 | 17.7 | 0.00 | 0.10 | 0.00 | 59 | 1407.2 |
| 20260507141935 | 12 | 195 | 1.6 | 9.7 | 0.00 | 0.10 | 0.00 | 60 | 1407.4 |
| 20260507141436 | 12 | 328 | 3.2 | 11.3 | 0.00 | 0.10 | 0.00 | 58 | 1407.5 |
| 20260507140935 | 11 | 338 | 6.4 | 12.9 | 0.00 | 0.10 | 0.00 | 60 | 1407.6 |
| 20260507140433 | 11 | 238 | 4.8 | 12.9 | 0.00 | 0.10 | 0.00 | 59 | 1407.6 |
| 20260507135933 | 11 | 302 | 4.8 | 11.3 | 0.00 | 0.10 | 0.00 | 61 | 1407.6 |
| 20260507135433 | 11 | 243 | 4.8 | 11.3 | 0.00 | 0.10 | 0.00 | 61 | 1407.8 |
| 20260507134932 | 11 | 282 | 3.2 | 14.5 | 0.00 | 0.10 | 0.00 | 62 | 1407.9 |
| 20260507134433 | 11 | 340 | 3.2 | 14.5 | 0.00 | 0.10 | 0.00 | 64 | 1408.0 |
| 20260507133933 | 11 | 210 | 3.2 | 11.3 | 0.00 | 0.10 | 0.00 | 64 | 1408.0 |
| 20260507133433 | 11 | 175 | 3.2 | 11.3 | 0.00 | 0.10 | 0.00 | 66 | 1408.0 |
| 20260507132931 | 11 | 223 | 3.2 | 8.0 | 0.00 | 0.10 | 0.00 | 67 | 1408.2 |
| 20260507132429 | 11 | 113 | 1.6 | 8.0 | 0.00 | 0.10 | 0.00 | 68 | 1408.0 |
| 20260507131930 | 11 | 213 | 1.6 | 6.4 | 0.00 | 0.10 | 0.00 | 76 | 1408.0 |
| 20260507130427 | 10 | 225 | 1.6 | 6.4 | 0.00 | 0.10 | 0.00 | 79 | 1408.0 |
| 20260507125421 | 10 | 196 | 1.6 | 4.8 | 0.00 | 0.10 | 0.00 | 84 | 1408.0 |
| 20260507123904 | 8 | 142 | 0.0 | 3.2 | 0.00 | 0.10 | 0.00 | 89 | 1408.3 |
| 20260507123358 | 8 | 138 | 0.0 | 4.8 | 0.00 | 0.10 | 0.00 | 90 | 1408.3 |
| 20260507122852 | 8 | 153 | 1.6 | 4.8 | 0.00 | 0.10 | 0.00 | 90 | 1408.3 |
| 20260507122346 | 8 | 207 | 1.6 | 4.8 | 0.00 | 0.10 | 0.00 | 91 | 1408.2 |
| 20260507121334 | 7 | 70 | 0.0 | 1.6 | 0.00 | 0.13 | 0.00 | 94 | 1408.3 |
| 20260507120827 | 7 | 70 | 0.0 | 3.2 | 0.00 | 0.13 | 0.00 | 95 | 1408.3 |
| 20260507120322 | 7 | 70 | 0.0 | 3.2 | 0.00 | 0.13 | 0.00 | 95 | 1408.2 |
| 20260507115816 | 6 | 42 | 0.0 | 1.6 | 0.00 | 0.13 | 0.00 | 95 | 1408.3 |
| 20260507115310 | 6 | 346 | 0.0 | 1.6 | 0.00 | 0.13 | 0.00 | 95 | 1408.3 |
| 20260507114804 | 6 | 346 | 0.0 | 1.6 | 0.00 | 0.13 | 0.00 | 95 | 1408.3 |
| 20260507114258 | 5 | 346 | 0.0 | 1.6 | 0.00 | 0.13 | 0.00 | 95 | 1408.2 |
| 20260507113246 | 5 | 346 | 0.0 | 0.0 | 0.00 | 0.13 | 0.00 | 95 | 1408.0 |
| 20260507112740 | 4 | 346 | 0.0 | 0.0 | 0.00 | 0.13 | 0.00 | 95 | 1407.9 |
| 20260507112234 | 3 | 346 | 0.0 | 0.0 | 0.00 | 0.13 | 0.00 | 94 | 1407.9 |
| 20260507111728 | 3 | 346 | 0.0 | 0.0 | 0.00 | 0.13 | 0.00 | 94 | 1407.8 |
| 20260507111222 | 3 | 346 | 0.0 | 0.0 | 0.00 | 0.13 | 0.00 | 94 | 1407.5 |
| 20260507110716 | 3 | 346 | 0.0 | 0.0 | 0.00 | 0.13 | 0.00 | 94 | 1407.5 |
| 20260507105704 | 3 | 346 | 0.0 | 0.0 | 0.00 | 0.15 | 0.00 | 93 | 1407.4 |
| 20260507105158 | 3 | 346 | 0.0 | 0.0 | 0.00 | 0.18 | 0.00 | 93 | 1407.2 |
| 20260507104652 | 3 | 346 | 0.0 | 0.0 | 0.00 | 0.20 | 0.00 | 93 | 1407.1 |
| 20260507104149 | 3 | 346 | 0.0 | 1.6 | 0.00 | 0.23 | 0.00 | 93 | 1407.2 |
| 20260507103648 | 3 | 346 | 0.0 | 1.6 | 0.00 | 0.23 | 0.00 | 93 | 1407.2 |
| 20260507103148 | 3 | 346 | 0.0 | 1.6 | 0.00 | 0.28 | 0.00 | 92 | 1407.4 |
| 20260507102647 | 3 | 346 | 0.0 | 1.6 | 0.00 | 0.33 | 0.00 | 92 | 1407.2 |
| 20260507102147 | 3 | 341 | 0.0 | 4.8 | 0.00 | 0.36 | 0.00 | 92 | 1407.2 |
| 20260507101648 | 3 | 341 | 0.0 | 4.8 | 0.00 | 0.38 | 0.00 | 92 | 1407.1 |
| 20260507100647 | 3 | 344 | 0.0 | 1.6 | 0.00 | 0.43 | 0.00 | 92 | 1406.9 |
| 20260507100148 | 3 | 344 | 0.0 | 1.6 | 0.00 | 0.43 | 0.00 | 92 | 1406.9 |
| 20260507095647 | 4 | 318 | 0.0 | 1.6 | 0.00 | 0.46 | 0.00 | 92 | 1406.8 |
| 20260507095148 | 4 | 318 | 0.0 | 3.2 | 0.00 | 0.46 | 0.00 | 92 | 1406.8 |
| 20260507094644 | 4 | 318 | 0.0 | 3.2 | 0.00 | 0.46 | 0.00 | 91 | 1406.9 |
| 20260507094142 | 4 | 17 | 0.0 | 3.2 | 0.00 | 0.48 | 0.00 | 91 | 1406.8 |
| 20260507093642 | 4 | 17 | 0.0 | 3.2 | 0.00 | 0.51 | 0.00 | 91 | 1406.8 |
| 20260507093144 | 4 | 17 | 0.0 | 0.0 | 0.00 | 0.53 | 0.00 | 91 | 1406.8 |
| 20260507092642 | 4 | 17 | 0.0 | 0.0 | 0.00 | 0.53 | 0.00 | 90 | 1406.8 |
| 20260507092143 | 5 | 17 | 0.0 | 0.0 | 0.00 | 0.56 | 0.00 | 90 | 1406.9 |
| 20260507091640 | 5 | 17 | 0.0 | 0.0 | 0.00 | 0.58 | 0.00 | 90 | 1407.1 |
| 20260507091138 | 5 | 17 | 0.0 | 0.0 | 0.00 | 0.58 | 0.00 | 89 | 1407.1 |
| 20260507090638 | 5 | 17 | 0.0 | 0.0 | 0.00 | 0.64 | 0.00 | 89 | 1407.1 |
| 20260507090140 | 5 | 17 | 0.0 | 0.0 | 0.00 | 0.64 | 0.00 | 89 | 1407.1 |
| 20260507085139 | 6 | 17 | 0.0 | 0.0 | 0.00 | 0.64 | 0.00 | 89 | 1407.1 |
| 20260507084639 | 6 | 17 | 0.0 | 3.2 | 0.00 | 0.64 | 0.00 | 89 | 1407.1 |
| 20260507084138 | 6 | 17 | 0.0 | 3.2 | 0.00 | 0.66 | 0.00 | 89 | 1407.1 |
| 20260507083640 | 6 | 17 | 0.0 | 3.2 | 0.00 | 0.66 | 0.00 | 89 | 1407.1 |
| 20260507083139 | 6 | 17 | 0.0 | 3.2 | 0.00 | 0.66 | 0.00 | 89 | 1407.1 |
| 20260507082639 | 6 | 17 | 0.0 | 0.0 | 0.00 | 0.69 | 0.00 | 88 | 1407.1 |
| 20260507081639 | 7 | 17 | 0.0 | 0.0 | 0.00 | 0.69 | 0.00 | 88 | 1407.1 |
| 20260507081139 | 7 | 17 | 0.0 | 0.0 | 0.00 | 0.69 | 0.00 | 87 | 1406.9 |
| 20260507080638 | 7 | 17 | 0.0 | 0.0 | 0.00 | 0.71 | 0.00 | 87 | 1406.8 |
| 20260507080138 | 7 | 17 | 0.0 | 0.0 | 0.00 | 0.71 | 0.00 | 87 | 1406.8 |
| 20260507075640 | 7 | 17 | 0.0 | 0.0 | 0.00 | 0.71 | 0.00 | 87 | 1406.8 |
| 20260507075138 | 7 | 17 | 0.0 | 0.0 | 0.00 | 0.71 | 0.00 | 87 | 1406.8 |
| 20260507074633 | 7 | 17 | 0.0 | 0.0 | 0.00 | 0.74 | 0.00 | 88 | 1406.7 |
| 20260507074127 | 7 | 17 | 0.0 | 0.0 | 0.00 | 0.74 | 0.00 | 87 | 1406.8 |
| 20260507073620 | 8 | 17 | 0.0 | 0.0 | 0.00 | 0.74 | 0.00 | 87 | 1406.9 |
| 20260507073115 | 8 | 17 | 0.0 | 0.0 | 0.00 | 0.74 | 0.00 | 87 | 1406.9 |
| 20260507072609 | 8 | 17 | 0.0 | 3.2 | 0.00 | 0.74 | 0.00 | 86 | 1406.8 |
| 20260507072103 | 8 | 17 | 0.0 | 3.2 | 0.00 | 0.74 | 0.00 | 87 | 1406.8 |
| 20260507071052 | 8 | 17 | 0.0 | 0.0 | 0.00 | 0.74 | 0.00 | 85 | 1406.8 |
| 20260507070545 | 8 | 17 | 0.0 | 0.0 | 0.00 | 0.74 | 0.00 | 85 | 1406.8 |
| 20260507070039 | 8 | 17 | 0.0 | 0.0 | 0.00 | 0.74 | 0.00 | 83 | 1406.7 |
| 20260507065533 | 8 | 17 | 0.0 | 0.0 | 0.00 | 0.74 | 0.00 | 79 | 1406.7 |
| 20260507065027 | 8 | 17 | 0.0 | 0.0 | 0.00 | 0.74 | 0.00 | 78 | 1406.7 |
| 20260507064015 | 8 | 17 | 0.0 | 1.6 | 0.00 | 0.74 | 0.00 | 78 | 1406.7 |
| 20260507063003 | 8 | 27 | 0.0 | 3.2 | 0.00 | 0.74 | 0.00 | 78 | 1406.8 |
| 20260507061951 | 8 | 34 | 0.0 | 4.8 | 0.00 | 0.74 | 0.00 | 76 | 1407.1 |
| 20260507061445 | 8 | 32 | 1.6 | 3.2 | 0.00 | 0.74 | 0.00 | 76 | 1407.1 |
| 20260507060433 | 8 | 18 | 0.0 | 3.2 | 0.00 | 0.74 | 0.00 | 80 | 1407.2 |
| 20260507055421 | 8 | 27 | 0.0 | 4.8 | 0.00 | 0.76 | 0.00 | 79 | 1407.4 |
| 20260507054915 | 8 | 20 | 0.0 | 0.0 | 0.00 | 0.76 | 0.00 | 80 | 1407.4 |
| 20260507054409 | 9 | 20 | 0.0 | 0.0 | 0.00 | 0.76 | 0.00 | 82 | 1407.4 |
| 20260507053357 | 9 | 20 | 0.0 | 0.0 | 0.00 | 0.76 | 0.00 | 83 | 1407.8 |
| 20260507052851 | 9 | 20 | 0.0 | 0.0 | 0.00 | 0.76 | 0.00 | 79 | 1407.6 |
| 20260507051839 | 9 | 20 | 0.0 | 0.0 | 0.00 | 0.76 | 0.00 | 80 | 1407.6 |
| 20260507051333 | 9 | 20 | 0.0 | 0.0 | 0.00 | 0.76 | 0.00 | 79 | 1407.8 |
| 20260507050826 | 9 | 20 | 0.0 | 0.0 | 0.00 | 0.76 | 0.00 | 79 | 1407.6 |
| 20260507050322 | 9 | 20 | 0.0 | 0.0 | 0.00 | 0.76 | 0.00 | 78 | 1407.6 |
| 20260507045814 | 9 | 20 | 0.0 | 0.0 | 0.00 | 0.76 | 0.00 | 78 | 1407.6 |
| 20260507045309 | 9 | 20 | 0.0 | 3.2 | 0.00 | 0.76 | 0.00 | 79 | 1407.8 |
| 20260507044804 | 9 | 20 | 0.0 | 3.2 | 0.00 | 0.76 | 0.00 | 79 | 1407.6 |
| 20260507043751 | 9 | 355 | 0.0 | 4.8 | 0.00 | 0.76 | 0.00 | 82 | 1407.5 |
| 20260507043245 | 9 | 346 | 0.0 | 3.2 | 0.00 | 0.76 | 0.00 | 82 | 1407.4 |
| 20260507042738 | 9 | 0 | 0.0 | 3.2 | 0.00 | 0.76 | 0.00 | 82 | 1407.4 |
| 20260507042233 | 9 | 13 | 0.0 | 4.8 | 0.00 | 0.76 | 0.00 | 82 | 1407.5 |
| 20260507041728 | 9 | 355 | 0.0 | 4.8 | 0.00 | 0.76 | 0.00 | 84 | 1407.2 |
| 20260507041222 | 9 | 5 | 0.0 | 1.6 | 0.00 | 0.76 | 0.00 | 86 | 1407.5 |
| 20260507040715 | 10 | 5 | 0.0 | 0.0 | 0.00 | 0.76 | 0.00 | 87 | 1407.5 |
| 20260507040209 | 10 | 5 | 0.0 | 0.0 | 0.00 | 0.76 | 0.00 | 86 | 1407.5 |
| 20260507035157 | 10 | 5 | 0.0 | 0.0 | 0.00 | 0.76 | 0.76 | 84 | 1407.4 |
| 20260507034651 | 10 | 5 | 0.0 | 0.0 | 0.00 | 0.76 | 0.76 | 84 | 1407.2 |
| 20260507034145 | 10 | 5 | 0.0 | 0.0 | 0.00 | 0.76 | 0.76 | 84 | 1407.5 |
| 20260507033638 | 10 | 5 | 0.0 | 0.0 | 0.00 | 0.76 | 0.76 | 83 | 1407.5 |
| 20260507033136 | 10 | 5 | 0.0 | 0.0 | 0.00 | 0.76 | 0.76 | 83 | 1407.2 |
| 20260507032135 | 10 | 5 | 0.0 | 0.0 | 0.00 | 0.76 | 0.76 | 83 | 1407.6 |
| 20260507031632 | 10 | 5 | 0.0 | 0.0 | 0.00 | 0.76 | 0.76 | 82 | 1407.5 |
| 20260507031132 | 10 | 5 | 0.0 | 1.6 | 0.00 | 0.76 | 0.76 | 83 | 1407.1 |
| 20260507030628 | 10 | 5 | 0.0 | 3.2 | 0.00 | 0.76 | 0.76 | 83 | 1406.9 |
| 20260507030128 | 10 | 5 | 0.0 | 3.2 | 0.00 | 0.76 | 0.76 | 84 | 1406.9 |
| 20260507025628 | 10 | 26 | 0.0 | 3.2 | 0.00 | 0.76 | 0.76 | 84 | 1407.2 |
| 20260507025126 | 10 | 26 | 0.0 | 3.2 | 0.00 | 0.76 | 0.76 | 80 | 1406.8 |
| 20260507024626 | 10 | 13 | 0.0 | 3.2 | 0.00 | 0.76 | 0.76 | 82 | 1406.5 |
| 20260507024127 | 10 | 13 | 0.0 | 3.2 | 0.00 | 0.76 | 0.76 | 82 | 1406.8 |
| 20260507023628 | 10 | 22 | 0.0 | 3.2 | 0.00 | 0.76 | 0.76 | 82 | 1406.8 |
| 20260507023127 | 10 | 15 | 0.0 | 3.2 | 0.00 | 0.76 | 0.76 | 84 | 1406.8 |
| 20260507022624 | 10 | 10 | 1.6 | 4.8 | 0.00 | 0.76 | 0.76 | 85 | 1406.8 |
| 20260507022125 | 10 | 347 | 1.6 | 4.8 | 0.00 | 0.76 | 0.76 | 87 | 1406.8 |
| 20260507021623 | 10 | 326 | 1.6 | 4.8 | 0.00 | 0.76 | 0.76 | 89 | 1406.8 |
| 20260507021124 | 10 | 24 | 1.6 | 4.8 | 0.00 | 0.76 | 0.76 | 91 | 1406.5 |
| 20260507020625 | 10 | 323 | 1.6 | 6.4 | 0.00 | 0.76 | 0.76 | 92 | 1406.8 |
| 20260507020124 | 11 | 346 | 1.6 | 6.4 | 0.00 | 0.76 | 0.76 | 93 | 1406.5 |
| 20260507015619 | 11 | 349 | 0.0 | 3.2 | 0.00 | 0.76 | 0.76 | 93 | 1406.1 |
| 20260507015113 | 11 | 349 | 0.0 | 1.6 | 0.00 | 0.76 | 0.76 | 93 | 1405.9 |
| 20260507014607 | 11 | 349 | 0.0 | 0.0 | 0.00 | 0.76 | 0.76 | 93 | 1405.7 |
| 20260507014100 | 11 | 349 | 0.0 | 0.0 | 0.00 | 0.76 | 0.76 | 93 | 1405.7 |
| 20260507013058 | 11 | 349 | 0.0 | 0.0 | 0.00 | 0.76 | 0.76 | 93 | 1405.7 |
| 20260507012557 | 11 | 349 | 0.0 | 0.0 | 0.00 | 0.76 | 0.76 | 93 | 1405.7 |
| 20260507011553 | 11 | 349 | 0.0 | 1.6 | 0.00 | 0.76 | 0.76 | 92 | 1405.5 |
| 20260507011054 | 11 | 349 | 0.0 | 1.6 | 0.00 | 0.76 | 0.76 | 92 | 1405.6 |
| 20260507010553 | 11 | 349 | 0.0 | 1.6 | 0.00 | 0.76 | 0.76 | 92 | 1405.6 |
| 20260507010050 | 11 | 349 | 0.0 | 3.2 | 0.00 | 0.76 | 0.76 | 92 | 1405.6 |
| 20260507005551 | 11 | 349 | 0.0 | 3.2 | 0.00 | 0.76 | 0.76 | 91 | 1405.7 |
| 20260507005051 | 11 | 349 | 0.0 | 3.2 | 0.00 | 0.76 | 0.76 | 91 | 1405.9 |
| 20260507004549 | 11 | 349 | 0.0 | 1.6 | 0.00 | 0.76 | 0.76 | 91 | 1405.9 |
| 20260507004051 | 11 | 349 | 0.0 | 1.6 | 0.00 | 0.76 | 0.76 | 91 | 1405.9 |
| 20260507003549 | 11 | 349 | 0.0 | 1.6 | 0.00 | 0.76 | 0.76 | 91 | 1405.7 |
| 20260507003051 | 11 | 348 | 0.0 | 1.6 | 0.00 | 0.76 | 0.76 | 90 | 1405.9 |
| 20260507002551 | 11 | 340 | 0.0 | 1.6 | 0.00 | 0.76 | 0.76 | 90 | 1406.0 |
| 20260507002050 | 11 | 283 | 0.0 | 0.0 | 0.00 | 0.76 | 0.76 | 90 | 1406.3 |
| 20260507000545 | 11 | 244 | 0.0 | 0.0 | 0.00 | 0.76 | 0.76 | 90 | 1406.8 |
| 20260507000046 | 11 | 244 | 0.0 | 1.6 | 0.00 | 0.76 | 0.76 | 90 | 1406.3 |
| 20260506235045 | 11 | 292 | 0.0 | 0.0 | 0.00 | 0.76 | 0.76 | 88 | 1405.7 |
| 20260506234545 | 11 | 255 | 0.0 | 0.0 | 0.00 | 0.76 | 0.76 | 89 | 1405.6 |
| 20260506234045 | 11 | 240 | 0.0 | 0.0 | 0.00 | 0.76 | 0.76 | 89 | 1405.7 |
| 20260506233543 | 11 | 240 | 0.0 | 1.6 | 0.00 | 0.76 | 0.76 | 89 | 1406.1 |
| 20260506233044 | 11 | 240 | 0.0 | 1.6 | 0.00 | 0.76 | 0.76 | 89 | 1406.0 |
| 20260506232544 | 11 | 281 | 0.0 | 1.6 | 0.00 | 0.76 | 0.76 | 88 | 1405.7 |
| 20260506232045 | 11 | 281 | 0.0 | 1.6 | 0.00 | 0.76 | 0.76 | 88 | 1405.6 |
| 20260506231541 | 12 | 281 | 0.0 | 0.0 | 0.00 | 0.76 | 0.76 | 88 | 1405.6 |
| 20260506230539 | 12 | 281 | 0.0 | 0.0 | 0.00 | 0.76 | 0.76 | 88 | 1405.5 |
| 20260506230041 | 12 | 281 | 0.0 | 0.0 | 0.00 | 0.76 | 0.76 | 88 | 1405.3 |
| 20260506225540 | 12 | 281 | 0.0 | 0.0 | 0.00 | 0.76 | 0.76 | 86 | 1405.3 |
| 20260506225040 | 12 | 281 | 0.0 | 0.0 | 0.00 | 0.76 | 0.76 | 86 | 1405.2 |
| 20260506224541 | 12 | 281 | 0.0 | 0.0 | 0.00 | 0.76 | 0.76 | 86 | 1405.2 |
| 20260506223541 | 12 | 281 | 0.0 | 1.6 | 0.00 | 0.76 | 0.76 | 85 | 1404.9 |
| 20260506223037 | 12 | 281 | 0.0 | 1.6 | 0.00 | 0.76 | 0.76 | 85 | 1405.1 |
| 20260506222535 | 12 | 323 | 0.0 | 1.6 | 0.00 | 0.76 | 0.76 | 85 | 1405.1 |
| 20260506222033 | 12 | 323 | 0.0 | 3.2 | 0.00 | 0.76 | 0.76 | 85 | 1404.9 |
| 20260506221529 | 12 | 323 | 1.6 | 4.8 | 0.00 | 0.76 | 0.76 | 84 | 1405.1 |
| 20260506221029 | 12 | 336 | 1.6 | 6.4 | 0.00 | 0.76 | 0.76 | 84 | 1405.1 |